Вернуться в каталог

JCSAT 13

АктивенСвязьGEO
NORAD 38331·PAYLOAD·🇯🇵 Japan

Запущен May 15, 2012 с Guiana Space Centre

Loading…

TLE

СвежийSource: Space-Track

Эпоха: Sep 14, 2026, 14:23 UTC

1 38331U 12023A   26257.59971444 -.00000364  00000-0  00000-0 0  9995
2 38331   0.0298 258.4414 0002367 262.5316 172.5174  1.00273374 52449

Отслеживайте JCSAT 13 в реальном времени с AllMySat

Download on the App Store